Orange City, IA

10:45 AM CDT on May 26, 2017 (GMT -0500)
Orange City Municipal

Weather History for KORC - March, 2013

Change the Weather History Date:

Sunday, March 24, 2013

  Actual Average Record
Temperature  
Mean Temperature 24 °F -  
Max Temperature 28 °F 48 °F 80 °F (2004)
Min Temperature 21 °F 30 °F 0 °F (1952)
Degree Days  
Heating Degree Days 40    
Moisture  
Dew Point 21 °F    
Average Humidity 80    
Maximum Humidity 93    
Minimum Humidity 69    
Precipitation  
Precipitation 0.00 in - - ()
Sea Level Pressure  
Sea Level Pressure 30.05 in    
Wind  
Wind Speed 10 mph (NNW)    
Max Wind Speed 18 mph    
Max Gust Speed 23 mph    
Visibility 7 miles    
Events Snow    
Averages and records for this station are not official NWS values.
T = Trace of Precipitation, MM = Missing Value Source: NWS Daily Summary

Daily Weather History Graph

Daily Weather History Graph

Search for Another Location

Airport or City:

Trip Planner

Search our weather history database for the weather conditions in past years. The results will help you decide how hot, cold, wet, or windy it might be!

Date:

Astronomy

Mar. 24, 2013 Rise Set
Actual Time 7:19 AM CDT 7:41 PM CDT
Civil Twilight 6:51 AM CDT 8:09 PM CDT
Nautical Twilight 6:18 AM CDT 8:43 PM CDT
Astronomical Twilight 5:43 AM CDT 9:17 PM CDT
Moon 5:07 PM CDT (3/24) 5:34 AM CDT (3/24)
Length of Visible Light 13h 18m
Length of Day
12h 21m
Waxing Gibbous, 92% of the Moon is Illuminated
Mar 24
Waxing Gibbous
Mar 27
Full
Apr 2
Last Quarter
Apr 10
New
Apr 18
First Quarter

Hourly Weather History & Observations

Time (CDT) Temp. Windchill Dew Point Humidity Pressure Visibility Wind Dir Wind Speed Gust Speed Precip Events Conditions
12:15 AM 26.6 °F 18.2 °F 21.2 °F 80% 30.10 in 10.0 mi North 8.1 mph - N/A   Overcast
12:35 AM 26.6 °F 17.5 °F 21.2 °F 80% 30.10 in 10.0 mi North 9.2 mph - N/A Snow Light Snow
12:55 AM 26.6 °F 18.2 °F 21.2 °F 80% 30.10 in 10.0 mi NNE 8.1 mph - N/A   Overcast
1:15 AM 26.6 °F 19.1 °F 21.2 °F 80% 30.11 in 7.0 mi NNE 6.9 mph - N/A Snow Light Snow
1:35 AM 26.6 °F 20.0 °F 21.2 °F 80% 30.10 in 7.0 mi NNE 5.8 mph - N/A Snow Light Snow
1:55 AM 26.6 °F 21.2 °F 21.2 °F 80% 30.10 in 10.0 mi North 4.6 mph - N/A Snow Light Snow
2:35 AM 26.6 °F 19.1 °F 21.2 °F 80% 30.10 in 10.0 mi North 6.9 mph - N/A   Overcast
2:55 AM 26.6 °F 19.1 °F 21.2 °F 80% 30.10 in 7.0 mi North 6.9 mph - N/A Snow Light Snow
3:15 AM 26.6 °F 16.8 °F 21.2 °F 80% 30.09 in 5.0 mi North 10.4 mph - N/A Snow Light Snow
3:35 AM 24.8 °F 16.9 °F 21.2 °F 86% 30.09 in 3.0 mi NNE 6.9 mph - N/A Snow Light Snow
3:55 AM 24.8 °F 16.9 °F 19.4 °F 80% 30.09 in 5.0 mi North 6.9 mph - N/A   Overcast
4:15 AM 26.6 °F 16.2 °F 21.2 °F 80% 30.08 in 7.0 mi North 11.5 mph 16.1 mph N/A Snow Light Snow
4:35 AM 24.8 °F 14.0 °F 19.4 °F 80% 30.07 in 10.0 mi North 11.5 mph - N/A   Overcast
4:55 AM 24.8 °F 12.9 °F 19.4 °F 80% 30.06 in 10.0 mi North 13.8 mph - N/A   Overcast
5:15 AM 24.8 °F 14.0 °F 19.4 °F 80% 30.06 in 10.0 mi North 11.5 mph - N/A   Scattered Clouds
5:35 AM 24.8 °F 14.0 °F 19.4 °F 80% 30.05 in 10.0 mi North 11.5 mph - N/A   Clear
5:55 AM 24.8 °F 16.1 °F 19.4 °F 80% 30.05 in 10.0 mi North 8.1 mph 17.3 mph N/A   Mostly Cloudy
6:15 AM 24.8 °F 14.0 °F 19.4 °F 80% 30.05 in 10.0 mi North 11.5 mph 17.3 mph N/A   Mostly Cloudy
6:35 AM 24.8 °F 14.0 °F 19.4 °F 80% 30.05 in 10.0 mi North 11.5 mph 17.3 mph N/A   Scattered Clouds
6:55 AM 23.0 °F 13.1 °F 19.4 °F 86% 30.06 in 10.0 mi North 9.2 mph - N/A   Scattered Clouds
7:15 AM 23.0 °F 13.9 °F 17.6 °F 80% 30.06 in 10.0 mi NNW 8.1 mph - N/A   Clear
7:35 AM 21.2 °F 9.5 °F 17.6 °F 86% 30.06 in 10.0 mi North 11.5 mph 16.1 mph N/A   Clear
7:55 AM 23.0 °F 11.1 °F 19.4 °F 86% 30.06 in 10.0 mi North 12.7 mph 18.4 mph N/A   Mostly Cloudy
8:15 AM 23.0 °F 10.6 °F 19.4 °F 86% 30.05 in 10.0 mi North 13.8 mph 18.4 mph N/A   Overcast
8:35 AM 24.8 °F 14.6 °F 19.4 °F 80% 30.05 in 10.0 mi North 10.4 mph - N/A   Overcast
8:55 AM 24.8 °F 13.4 °F 19.4 °F 80% 30.05 in 10.0 mi NNW 12.7 mph 17.3 mph N/A   Overcast
9:15 AM 24.8 °F 12.9 °F 19.4 °F 80% 30.04 in 7.0 mi NNW 13.8 mph - N/A   Overcast
9:35 AM 24.8 °F 12.9 °F 19.4 °F 80% 30.05 in 7.0 mi NNW 13.8 mph 19.6 mph N/A   Overcast
9:55 AM 24.8 °F 13.4 °F 17.6 °F 74% 30.04 in 7.0 mi NNW 12.7 mph 21.9 mph N/A   Overcast
10:15 AM 24.8 °F 13.4 °F 17.6 °F 74% 30.05 in 7.0 mi North 12.7 mph 20.7 mph N/A   Overcast
10:35 AM 24.8 °F 13.4 °F 17.6 °F 74% 30.04 in 10.0 mi NNW 12.7 mph - N/A   Overcast
10:55 AM 24.8 °F 14.0 °F 19.4 °F 80% 30.04 in 7.0 mi NNW 11.5 mph 18.4 mph N/A   Overcast
11:15 AM 24.8 °F 12.9 °F 19.4 °F 80% 30.04 in 7.0 mi North 13.8 mph 20.7 mph N/A   Overcast
11:35 AM 24.8 °F 14.0 °F 17.6 °F 74% 30.04 in 10.0 mi NNW 11.5 mph 16.1 mph N/A   Overcast
11:55 AM 24.8 °F 15.3 °F 17.6 °F 74% 30.04 in 10.0 mi NNW 9.2 mph - N/A   Overcast
12:15 PM 26.6 °F 16.2 °F 19.4 °F 74% 30.04 in 10.0 mi NW 11.5 mph - N/A   Overcast
12:35 PM 26.6 °F 16.2 °F 19.4 °F 74% 30.03 in 10.0 mi NNW 11.5 mph - N/A   Overcast
12:55 PM 26.6 °F 15.7 °F 19.4 °F 74% 30.03 in 10.0 mi NW 12.7 mph 17.3 mph N/A   Overcast
1:15 PM 26.6 °F 16.2 °F 19.4 °F 74% 30.02 in 5.0 mi NNW 11.5 mph - N/A Snow Light Snow
1:35 PM 28.4 °F 18.5 °F 19.4 °F 69% 30.02 in 7.0 mi NW 11.5 mph 19.6 mph N/A Snow Light Snow
1:55 PM 28.4 °F 17.5 °F 19.4 °F 69% 30.02 in 5.0 mi NNW 13.8 mph 19.6 mph N/A Snow Light Snow
2:15 PM 28.4 °F 17.5 °F 19.4 °F 69% 30.01 in 5.0 mi NW 13.8 mph 19.6 mph N/A Snow Light Snow
2:35 PM 28.4 °F 18.5 °F 19.4 °F 69% 30.00 in 5.0 mi NW 11.5 mph 18.4 mph N/A Snow Light Snow
2:55 PM 28.4 °F 17.0 °F 19.4 °F 69% 30.00 in 5.0 mi NW 15.0 mph 19.6 mph N/A Snow Light Snow
3:15 PM 28.4 °F 17.5 °F 19.4 °F 69% 30.00 in 7.0 mi NW 13.8 mph 21.9 mph N/A Snow Light Snow
3:35 PM 28.4 °F 17.5 °F 19.4 °F 69% 29.99 in 10.0 mi NW 13.8 mph - N/A Snow Light Snow
3:55 PM 28.4 °F 18.0 °F 19.4 °F 69% 29.99 in 10.0 mi NNW 12.7 mph - N/A   Overcast
4:15 PM 28.4 °F 17.0 °F 19.4 °F 69% 29.99 in 10.0 mi NNW 15.0 mph 18.4 mph N/A   Overcast
4:35 PM 28.4 °F 17.5 °F 21.2 °F 74% 29.99 in 10.0 mi NW 13.8 mph 20.7 mph N/A   Overcast
4:55 PM 28.4 °F 18.0 °F 21.2 °F 74% 29.99 in 10.0 mi NNW 12.7 mph 19.6 mph N/A   Overcast
5:15 PM 28.4 °F 17.5 °F 21.2 °F 74% 30.00 in 10.0 mi NW 13.8 mph - N/A   Overcast
5:35 PM 28.4 °F 19.1 °F 21.2 °F 74% 30.01 in 10.0 mi NNW 10.4 mph 17.3 mph N/A   Overcast
5:55 PM 28.4 °F 18.5 °F 21.2 °F 74% 30.01 in 10.0 mi NW 11.5 mph - N/A   Overcast
6:15 PM 28.4 °F 17.5 °F 24.8 °F 86% 30.01 in 2.5 mi NW 13.8 mph 17.3 mph N/A Snow Light Snow
6:35 PM 28.4 °F 18.0 °F 23.0 °F 80% 30.01 in 3.0 mi NNW 12.7 mph 18.4 mph N/A Snow Light Snow
6:55 PM 28.4 °F 18.0 °F 21.2 °F 74% 30.01 in 2.0 mi NNW 12.7 mph - N/A Snow Light Snow
7:15 PM 28.4 °F 19.7 °F 23.0 °F 80% 30.02 in 1.8 mi NNW 9.2 mph - N/A Snow Light Snow
7:35 PM 28.4 °F 20.4 °F 24.8 °F 86% 30.02 in 3.0 mi NNW 8.1 mph 17.3 mph N/A Snow Light Snow
7:55 PM 28.4 °F 19.1 °F 24.8 °F 86% 30.03 in 3.0 mi North 10.4 mph - N/A Snow Light Snow
8:15 PM 28.4 °F 18.5 °F 24.8 °F 86% 30.03 in 2.5 mi North 11.5 mph 16.1 mph N/A Snow Light Snow
8:35 PM 26.6 °F 18.2 °F 24.8 °F 93% 30.04 in 2.5 mi North 8.1 mph 16.1 mph N/A   Overcast
8:55 PM 26.6 °F 16.8 °F 24.8 °F 93% 30.04 in 3.0 mi North 10.4 mph - N/A   Overcast
9:15 PM 26.6 °F 17.5 °F 24.8 °F 93% 30.05 in 3.0 mi North 9.2 mph - N/A   Overcast
9:35 PM 26.6 °F 18.2 °F 24.8 °F 93% 30.05 in 2.5 mi NNW 8.1 mph - N/A   Overcast
9:55 PM 26.6 °F 16.8 °F 23.0 °F 86% 30.06 in 2.5 mi NNW 10.4 mph - N/A   Overcast
10:15 PM 26.6 °F 18.2 °F 24.8 °F 93% 30.06 in 2.5 mi NNW 8.1 mph - N/A   Overcast
10:35 PM 26.6 °F 14.7 °F 24.8 °F 93% 30.06 in 2.5 mi North 15.0 mph 20.7 mph N/A   Overcast
10:55 PM 26.6 °F 15.2 °F 23.0 °F 86% 30.06 in 4.0 mi North 13.8 mph 21.9 mph N/A Snow Light Snow
11:15 PM 26.6 °F 15.7 °F 21.2 °F 80% 30.07 in 3.0 mi North 12.7 mph 21.9 mph N/A Snow Light Snow
11:35 PM 24.8 °F 11.1 °F 21.2 °F 86% 30.07 in 3.0 mi North 18.4 mph 23.0 mph N/A Snow Light Snow
11:55 PM 24.8 °F 12.9 °F 21.2 °F 86% 30.07 in 3.0 mi NNW 13.8 mph 21.9 mph N/A Snow Light Snow